K7SPS-10 Weather Reports


time (UTC)temp
C
wind
direction
speed
KPH
gust
KPH
rain 1hr
cm
rain 24hr
cm
rain mn
cm
humidity
%
barometer
mb
20260505214142 26 19 3.2 22.5 0.00 0.00 0.00 25 1009.3
20260505213640 26 51 4.8 14.5 0.00 0.00 0.00 28 1009.3
20260505213137 26 334 8.0 16.1 0.00 0.00 0.00 25 1009.2
20260505212632 26 313 9.7 12.9 0.00 0.00 0.00 26 1009.6
20260505212130 26 83 4.8 11.3 0.00 0.00 0.00 28 1009.6
20260505211627 25 328 9.7 25.7 0.00 0.00 0.00 25 1009.4
20260505211124 26 315 14.5 16.1 0.00 0.00 0.00 25 1009.4
20260505210621 26 36 6.4 6.4 0.00 0.00 0.00 28 1009.3
20260505210118 26 334 9.7 17.7 0.00 0.00 0.00 25 1009.4
20260505205615 26 318 9.7 14.5 0.00 0.00 0.00 29 1009.7
20260505205113 25 242 8.0 14.5 0.00 0.00 0.00 31 1009.6
20260505204610 25 227 9.7 17.7 0.00 0.00 0.00 31 1009.6
20260505204107 25 283 12.9 16.1 0.00 0.00 0.00 31 1009.9
20260505203603 25 280 4.8 11.3 0.00 0.00 0.00 31 1010.0
20260505203101 24 255 9.7 14.5 0.00 0.00 0.00 31 1009.9
20260505202556 25 304 6.4 9.7 0.00 0.00 0.00 30 1009.9
20260505202053 24 272 4.8 11.3 0.00 0.00 0.00 33 1010.0
20260505201550 24 262 3.2 8.0 0.00 0.00 0.00 30 1010.1
20260505201048 25 199 1.6 6.4 0.00 0.00 0.00 30 1009.8
20260505200545 25 51 6.4 14.5 0.00 0.00 0.00 31 1009.9
20260505200042 25 355 3.2 9.7 0.00 0.00 0.00 34 1010.2
20260505195538 24 320 4.8 8.0 0.00 0.00 0.00 31 1010.3
20260505195036 25 28 8.0 9.7 0.00 0.00 0.00 32 1010.3
20260505194533 24 327 1.6 4.8 0.00 0.00 0.00 30 1010.3
20260505194028 23 75 8.0 14.5 0.00 0.00 0.00 31 1010.2
20260505193525 23 235 4.8 4.8 0.00 0.00 0.00 32 1010.4
20260505193023 23 127 11.3 16.1 0.00 0.00 0.00 32 1010.4
20260505192521 24 91 3.2 4.8 0.00 0.00 0.00 33 1010.5
20260505192018 23 173 4.8 6.4 0.00 0.00 0.00 34 1010.6
20260505191516 24 115 3.2 4.8 0.00 0.00 0.00 34 1010.4
20260505191014 24 122 4.8 6.4 0.00 0.00 0.00 35 1010.5
20260505190508 24 129 0.0 6.4 0.00 0.00 0.00 33 1010.5
20260505190005 23 150 4.8 4.8 0.00 0.00 0.00 34 1010.6
20260505185502 23 117 0.0 11.3 0.00 0.00 0.00 39 1010.6
20260505184958 23 192 8.0 9.7 0.00 0.00 0.00 35 1010.6
20260505184455 23 112 3.2 6.4 0.00 0.00 0.00 38 1010.6
20260505183951 23 118 4.8 4.8 0.00 0.00 0.00 38 1010.7
20260505183449 23 112 9.7 9.7 0.00 0.00 0.00 39 1010.6
20260505182945 22 209 4.8 11.3 0.00 0.00 0.00 36 1010.8
20260505182442 23 184 4.8 6.4 0.00 0.00 0.00 36 1010.8
20260505181938 23 278 0.0 8.0 0.00 0.00 0.00 39 1010.8
20260505181436 23 79 3.2 6.4 0.00 0.00 0.00 36 1010.7
20260505180933 22 154 4.8 8.0 0.00 0.00 0.00 38 1010.8
20260505180429 22 119 4.8 8.0 0.00 0.00 0.00 39 1011.0
20260505175926 22 112 8.0 9.7 0.00 0.00 0.00 40 1011.0
20260505175422 22 107 3.2 6.4 0.00 0.00 0.00 40 1010.8
20260505174918 22 111 9.7 11.3 0.00 0.00 0.00 42 1010.8
20260505174416 22 118 6.4 8.0 0.00 0.00 0.00 40 1010.9
20260505173912 22 120 4.8 11.3 0.00 0.00 0.00 41 1011.0
20260505173408 22 133 3.2 8.0 0.00 0.00 0.00 42 1010.6
20260505172905 22 112 11.3 11.3 0.00 0.00 0.00 42 1010.9
20260505172403 21 93 4.8 14.5 0.00 0.00 0.00 40 1010.8
20260505171903 22 98 4.8 8.0 0.00 0.00 0.00 44 1010.7
20260505171400 21 81 4.8 9.7 0.00 0.00 0.00 42 1010.7
20260505170856 21 107 4.8 8.0 0.00 0.00 0.00 45 1011.2
20260505170353 21 93 4.8 11.3 0.00 0.00 0.00 45 1010.8
20260505165848 21 96 6.4 11.3 0.00 0.00 0.00 44 1010.8
20260505165344 20 62 12.9 17.7 0.00 0.00 0.00 48 1010.5
20260505164840 20 105 4.8 9.7 0.00 0.00 0.00 48 1010.8
20260505164337 20 60 12.9 14.5 0.00 0.00 0.00 50 1010.9
20260505163835 20 100 11.3 16.1 0.00 0.00 0.00 49 1010.7
20260505163334 19 98 11.3 12.9 0.00 0.00 0.00 48 1010.7
20260505162832 20 106 9.7 11.3 0.00 0.00 0.00 47 1010.7
20260505162328 19 97 8.0 16.1 0.00 0.00 0.00 48 1010.6
20260505161825 19 111 4.8 9.7 0.00 0.00 0.00 47 1010.8
20260505161322 19 88 8.0 9.7 0.00 0.00 0.00 49 1010.8
20260505160819 20 103 8.0 8.0 0.00 0.00 0.00 46 1010.9
20260505160317 19 93 4.8 9.7 0.00 0.00 0.00 48 1010.7
20260505153256 18 114 4.8 8.0 0.00 0.00 0.00 50 1010.6
20260505152754 18 117 6.4 8.0 0.00 0.00 0.00 51 1010.4
20260505152250 17 104 6.4 8.0 0.00 0.00 0.00 49 1010.5
20260505151750 17 98 6.4 11.3 0.00 0.00 0.00 49 1010.4
20260505151248 17 84 4.8 9.7 0.00 0.00 0.00 51 1010.5
20260505150745 17 102 4.8 6.4 0.00 0.00 0.00 52 1010.4
20260505150242 17 100 6.4 9.7 0.00 0.00 0.00 52 1010.3
20260505140212 16 119 1.6 3.2 0.00 0.00 0.00 54 1009.9
20260505130135 13 73 0.0 3.2 0.00 0.00 0.00 61 1008.7
20260505124625 13 233 4.8 4.8 0.00 0.00 0.00 60 1008.5
20260505124122 13 256 0.0 0.0 0.00 0.00 0.00 60 1008.4
20260505123617 13 240 0.0 1.6 0.00 0.00 0.00 58 1008.3
20260505123114 14 309 0.0 3.2 0.00 0.00 0.00 57 1008.1
20260505122611 14 37 0.0 3.2 0.00 0.00 0.00 57 1007.9
20260505122109 14 331 4.8 4.8 0.00 0.00 0.00 55 1007.8
20260505121604 15 304 3.2 4.8 0.00 0.00 0.00 54 1007.7
20260505121102 15 285 6.4 8.0 0.00 0.00 0.00 55 1007.7
20260505120558 15 294 6.4 6.4 0.00 0.00 0.00 56 1007.7
20260505120054 12 283 4.8 4.8 0.00 0.00 0.00 61 1007.8
20260505115548 13 216 3.2 4.8 0.00 0.00 0.00 59 1007.7
20260505115046 13 201 4.8 6.4 0.00 0.00 0.00 61 1007.7
20260505114543 13 203 6.4 8.0 0.00 0.00 0.00 58 1007.7
20260505114039 13 154 1.6 3.2 0.00 0.00 0.00 58 1007.6
20260505113536 14 124 0.0 3.2 0.00 0.00 0.00 56 1007.6
20260505113032 15 114 0.0 3.2 0.00 0.00 0.00 54 1007.4
20260505112528 15 340 1.6 4.8 0.00 0.00 0.00 53 1007.4
20260505112027 15 323 4.8 4.8 0.00 0.00 0.00 53 1007.4
20260505111520 15 31 3.2 6.4 0.00 0.00 0.00 56 1007.4
20260505111017 15 355 3.2 3.2 0.00 0.00 0.00 53 1007.3
20260505110513 15 13 1.6 4.8 0.00 0.00 0.00 53 1007.3
20260505101945 17 315 6.4 11.3 0.00 0.00 0.00 47 1006.7
20260505101444 17 325 11.3 14.5 0.00 0.00 0.00 46 1007.0
20260505100940 17 293 9.7 12.9 0.00 0.00 0.00 45 1006.7
20260505100437 17 302 9.7 12.9 0.00 0.00 0.00 44 1006.8
20260505095933 17 276 11.3 12.9 0.00 0.00 0.00 45 1006.8
20260505095430 17 296 6.4 8.0 0.00 0.00 0.00 45 1006.9
20260505094926 17 275 4.8 8.0 0.00 0.00 0.00 46 1006.6
20260505094423 16 223 6.4 8.0 0.00 0.00 0.00 47 1006.8
20260505093919 16 271 6.4 6.4 0.00 0.00 0.00 47 1006.6
20260505093416 17 286 6.4 9.7 0.00 0.00 0.00 45 1006.5
20260505092914 17 298 8.0 11.3 0.00 0.00 0.00 44 1006.6
20260505092412 18 283 6.4 9.7 0.00 0.00 0.00 42 1006.3
20260505091909 18 305 11.3 12.9 0.00 0.00 0.00 41 1006.7
20260505091406 18 256 11.3 16.1 0.00 0.00 0.00 41 1006.3
20260505090904 17 278 9.7 9.7 0.00 0.00 0.00 43 1006.3
20260505090402 17 285 8.0 14.5 0.00 0.00 0.00 42 1006.3
20260505085859 18 275 11.3 11.3 0.00 0.00 0.00 42 1006.3
20260505085357 18 285 9.7 12.9 0.00 0.00 0.00 39 1006.2
20260505084855 18 288 9.7 14.5 0.00 0.00 0.00 40 1006.7
20260505084353 17 287 8.0 8.0 0.00 0.00 0.00 41 1006.6
20260505083850 18 296 4.8 8.0 0.00 0.00 0.00 40 1006.7
20260505083348 17 349 6.4 8.0 0.00 0.00 0.00 41 1006.3
20260505082844 17 339 6.4 11.3 0.00 0.00 0.00 43 1006.5
20260505082340 17 307 8.0 12.9 0.00 0.00 0.00 43 1006.5
20260505081837 17 300 9.7 16.1 0.00 0.00 0.00 41 1006.3
20260505081333 18 276 11.3 12.9 0.00 0.00 0.00 40 1006.3
20260505080830 18 274 11.3 16.1 0.00 0.00 0.00 40 1006.5
20260505080326 18 219 12.9 20.9 0.00 0.00 0.00 39 1006.5
20260505075821 17 267 9.7 12.9 0.00 0.00 0.00 41 1006.6
20260505075319 18 256 4.8 14.5 0.00 0.00 0.00 37 1006.6
20260505074816 17 233 11.3 11.3 0.00 0.00 0.00 41 1006.2
20260505074313 16 236 8.0 9.7 0.00 0.00 0.00 43 1006.3
20260505073810 16 215 9.7 11.3 0.00 0.00 0.00 43 1006.7
20260505073308 16 227 4.8 6.4 0.00 0.00 0.00 42 1006.3
20260505072805 16 226 6.4 8.0 0.00 0.00 0.00 44 1006.6
20260505072301 16 274 6.4 8.0 0.00 0.00 0.00 44 1006.5
20260505071757 16 220 6.4 9.7 0.00 0.00 0.00 44 1006.5
20260505071254 16 232 8.0 9.7 0.00 0.00 0.00 44 1006.6
20260505070751 16 233 11.3 12.9 0.00 0.00 0.00 45 1006.3
20260505070248 16 217 11.3 11.3 0.00 0.00 0.00 45 1006.6
20260505065743 16 249 8.0 12.9 0.00 0.00 0.00 46 1006.2
20260505065240 15 232 8.0 9.7 0.00 0.00 0.00 48 1006.3
20260505064737 16 214 6.4 8.0 0.00 0.00 0.00 46 1006.3
20260505064235 16 237 4.8 8.0 0.00 0.00 0.00 45 1006.1
20260505063732 17 224 8.0 11.3 0.00 0.00 0.00 44 1006.1
20260505063228 16 215 8.0 9.7 0.00 0.00 0.00 46 1006.5
20260505062725 16 216 8.0 11.3 0.00 0.00 0.00 47 1006.2
20260505062223 16 218 9.7 11.3 0.00 0.00 0.00 47 1006.1
20260505061719 17 229 8.0 8.0 0.00 0.00 0.00 45 1006.1
20260505061217 18 272 4.8 9.7 0.00 0.00 0.00 42 1006.0
20260505060714 18 290 4.8 9.7 0.00 0.00 0.00 41 1006.0
20260505060211 18 290 8.0 11.3 0.00 0.00 0.00 42 1006.0
20260505055707 17 303 6.4 8.0 0.00 0.00 0.00 43 1006.0
20260505055203 17 301 3.2 8.0 0.00 0.00 0.00 44 1006.0
20260505054701 17 316 6.4 9.7 0.00 0.00 0.00 44 1005.9
20260505054159 18 292 6.4 11.3 0.00 0.00 0.00 44 1005.9
20260505053656 18 286 8.0 14.5 0.00 0.00 0.00 44 1006.1
20260505053152 18 300 11.3 12.9 0.00 0.00 0.00 44 1005.9
20260505052649 18 284 4.8 8.0 0.00 0.00 0.00 45 1005.8
20260505052147 18 323 4.8 8.0 0.00 0.00 0.00 45 1005.9
20260505051643 17 295 9.7 9.7 0.00 0.00 0.00 46 1005.9
20260505051142 17 303 4.8 4.8 0.00 0.00 0.00 51 1005.8
20260505050639 17 69 0.0 3.2 0.00 0.00 0.00 51 1005.7
20260505050137 18 335 3.2 8.0 0.00 0.00 0.00 46 1005.8
20260505041607 19 300 4.8 6.4 0.00 0.00 0.00 44 1005.2
20260505041104 20 298 4.8 6.4 0.00 0.00 0.00 43 1005.2
20260505040601 20 273 8.0 8.0 0.00 0.00 0.00 43 1005.0
20260505040059 20 291 6.4 8.0 0.00 0.00 0.00 41 1005.2
20260505035555 20 333 6.4 9.7 0.00 0.00 0.00 40 1004.8
20260505035051 20 316 4.8 11.3 0.00 0.00 0.00 40 1004.7
20260505034548 20 319 8.0 14.5 0.00 0.00 0.00 40 1004.8
20260505034045 21 321 9.7 12.9 0.00 0.00 0.00 39 1005.0
20260505033542 21 347 6.4 9.7 0.00 0.00 0.00 39 1004.8
20260505033040 21 330 8.0 14.5 0.00 0.00 0.00 39 1004.7
20260505032538 21 323 12.9 17.7 0.00 0.00 0.00 39 1005.0
20260505032034 21 316 11.3 14.5 0.00 0.00 0.00 39 1004.7
20260505031531 21 320 14.5 17.7 0.00 0.00 0.00 37 1004.4
20260505031027 21 322 9.7 16.1 0.00 0.00 0.00 37 1004.5
20260505030524 22 310 8.0 14.5 0.00 0.00 0.00 37 1004.4
20260505030021 22 293 4.8 12.9 0.00 0.00 0.00 36 1004.3
20260505025516 23 303 9.7 16.1 0.00 0.00 0.00 34 1004.1
20260505025016 23 302 8.0 19.3 0.00 0.00 0.00 33 1004.4
20260505024512 23 299 12.9 17.7 0.00 0.00 0.00 33 1004.2
20260505024009 23 333 6.4 19.3 0.00 0.00 0.00 33 1004.3
20260505023506 24 322 17.7 27.4 0.00 0.00 0.00 32 1004.2
20260505023003 23 328 8.0 9.7 0.00 0.00 0.00 35 1004.3
20260505022501 24 325 6.4 14.5 0.00 0.00 0.00 33 1004.0
20260505021958 25 352 4.8 6.4 0.00 0.00 0.00 31 1004.1
20260505021454 25 45 1.6 8.0 0.00 0.00 0.00 30 1003.9
20260505020950 25 357 4.8 4.8 0.00 0.00 0.00 30 1003.9
20260505020445 26 5 4.8 4.8 0.00 0.00 0.00 29 1004.1
20260505015943 26 7 6.4 6.4 0.00 0.00 0.00 28 1003.9
20260505015440 27 344 4.8 4.8 0.00 0.00 0.00 27 1003.9
20260505014937 27 4 3.2 8.0 0.00 0.00 0.00 27 1004.0
20260505014434 27 356 4.8 6.4 0.00 0.00 0.00 27 1003.8
20260505013931 27 9 3.2 4.8 0.00 0.00 0.00 27 1003.9
20260505013428 27 8 3.2 4.8 0.00 0.00 0.00 26 1003.8
20260505012926 27 350 4.8 6.4 0.00 0.00 0.00 26 1003.9
20260505012424 27 358 4.8 6.4 0.00 0.00 0.00 25 1004.0
20260505011919 27 358 3.2 8.0 0.00 0.00 0.00 25 1004.1
20260505011416 28 335 6.4 8.0 0.00 0.00 0.00 25 1004.2
20260505010913 28 337 4.8 9.7 0.00 0.00 0.00 24 1004.2
20260505010409 28 0 4.8 9.7 0.00 0.00 0.00 24 1004.0
20260505005904 28 15 3.2 8.0 0.00 0.00 0.00 23 1004.3
20260505005402 28 341 8.0 8.0 0.00 0.00 0.00 23 1003.9
20260505004859 28 348 3.2 11.3 0.00 0.00 0.00 25 1004.3
20260505004355 28 344 8.0 11.3 0.00 0.00 0.00 23 1004.1
20260505003853 28 327 9.7 12.9 0.00 0.00 0.00 24 1004.3
20260505003350 28 323 12.9 14.5 0.00 0.00 0.00 23 1004.5
20260505002845 28 343 6.4 25.7 0.00 0.00 0.00 23 1004.3
20260505002343 28 359 4.8 8.0 0.00 0.00 0.00 23 1004.5
20260505001841 28 351 11.3 19.3 0.00 0.00 0.00 23 1004.6
20260505001338 28 354 3.2 22.5 0.00 0.00 0.00 21 1004.7
20260505000835 28 346 6.4 9.7 0.00 0.00 0.00 22 1004.3
20260505000333 28 347 6.4 11.3 0.00 0.00 0.00 22 1004.2
20260504235829 28 0 4.8 24.1 0.00 0.00 0.00 22 1004.4
20260504235326 29 330 9.7 20.9 0.00 0.00 0.00 23 1004.6
20260504234823 28 25 6.4 11.3 0.00 0.00 0.00 24 1004.6
20260504234321 28 348 6.4 9.7 0.00 0.00 0.00 22 1004.6
20260504233817 28 339 12.9 14.5 0.00 0.00 0.00 22 1004.6
20260504233313 28 39 3.2 9.7 0.00 0.00 0.00 22 1004.4
20260504232809 28 308 11.3 19.3 0.00 0.00 0.00 24 1004.5
20260504232307 28 287 12.9 19.3 0.00 0.00 0.00 25 1004.6
20260504231804 28 337 4.8 14.5 0.00 0.00 0.00 23 1004.7
20260504231300 28 331 8.0 11.3 0.00 0.00 0.00 23 1004.7
20260504230756 28 4 8.0 8.0 0.00 0.00 0.00 23 1005.0
20260504230254 28 326 6.4 9.7 0.00 0.00 0.00 23 1005.2
20260504225753 28 321 11.3 22.5 0.00 0.00 0.00 24 1005.1
20260504225249 28 327 14.5 16.1 0.00 0.00 0.00 23 1005.3
20260504224746 28 310 11.3 19.3 0.00 0.00 0.00 23 1005.2
20260504224243 28 341 4.8 32.2 0.00 0.00 0.00 23 1005.2
20260504223739 28 306 14.5 25.7 0.00 0.00 0.00 22 1005.4
20260504223235 28 308 14.5 25.7 0.00 0.00 0.00 22 1005.4
20260504222732 28 294 11.3 22.5 0.00 0.00 0.00 22 1005.5
20260504222229 28 289 8.0 17.7 0.00 0.00 0.00 20 1005.4
20260504221727 28 286 16.1 24.1 0.00 0.00 0.00 22 1005.5
20260504221224 27 289 16.1 22.5 0.00 0.00 0.00 22 1005.8
20260504220720 28 289 17.7 20.9 0.00 0.00 0.00 23 1005.5
20260504220218 27 342 6.4 16.1 0.00 0.00 0.00 23 1005.6
20260504215714 28 332 4.8 33.8 0.00 0.00 0.00 21 1005.7
20260504215211 27 304 11.3 12.9 0.00 0.00 0.00 21 1005.8
20260504214707 27 43 8.0 9.7 0.00 0.00 0.00 22 1005.9